Flag for Germany Weather past 2 weeks in Neumünster, Schleswig-Holstein, Germany

Now
42 °F

Overcast.


Feels Like: 42 °F
Forecast: 38 / 61 °F
Wind: 2 mph from Southwest

Location: Itzehoe

Current Time: Apr 19, 2015 at 5:19:36 AM

Latest Report: Apr 19, 2015 at 4:00 AM


Visibility: 19 mi

Pressure: 30.18 "Hg

Humidity: 84%

Dew point: 37 °F

Location of NeumünsterLocation

Historic Weather in Neumünster — Graph

°F

Neumünster temperature yesterday

Maximum temperature yesterday: 56 °F (at 4:00 PM)
Minimum temperature yesterday: 34 °F (at 7:00 AM)
Average temperature yesterday: 44 °F

Past Weeks' High & Low Weather Summary

 TemperatureHumidityPressure
High65 °F (Apr 10, 6:00 PM)100% (Apr 9, 3:00 AM)30.57 "Hg (Apr 9, 3:00 AM)
Low27 °F (Apr 5, 4:00 AM)33% (Apr 9, 6:00 PM)29.87 "Hg (Apr 15, 4:00 PM)
Average45 °F75%30.21 "Hg
* Reported Apr 4 4:00 AM — Apr 19 4:00 AM, Neumünster, Weather by CustomWeather, © 2015

Note: Actual official high and low records may vary slightly from our data, if they occured in-between our weather recording intervals... More about our weather records

Advertising

Neumünster weather history for previous 24 hours

 ConditionsComfort  
Time TempWeatherWind HumidityBarometerVisibility
4:00 AM
Sun, Apr 19
42 °FOvercast.2 mph84%30.18 "Hg19 mi
3:00 AM42 °FOvercast.1 mph85%30.19 "Hg16 mi
1:00 AM42 °FOvercast.3 mph81%30.22 "Hg19 mi
12:00 AM42 °FOvercast.3 mph82%30.24 "Hg16 mi
10:00 PM
Sat, Apr 18
42 °FPassing clouds.3 mph87%30.26 "Hg12 mi
9:00 PM44 °FClear.5 mph84%30.26 "Hg14 mi
7:00 PM51 °FSunny.5 mph63%30.27 "Hg25 mi
6:00 PM53 °FOvercast.6 mph61%30.27 "Hg18 mi
4:00 PM56 °FScattered clouds.2 mph44%30.30 "Hg22 mi
3:00 PM55 °FPassing clouds.3 mph45%30.32 "Hg19 mi
1:00 PM52 °FPassing clouds.3 mph43%30.34 "Hg34 mi
12:00 PM52 °FScattered clouds.3 mph50%30.35 "Hg25 mi
10:00 AM47 °FSunny.3 mph65%30.35 "Hg22 mi
9:00 AM43 °FSunny.3 mph79%30.34 "Hg18 mi
7:00 AM34 °FSunny.1 mph91%30.32 "Hg11 mi
6:00 AM35 °FClear.2 mph89%30.30 "Hg17 mi
Weather by CustomWeather, © 2015

See weather overviewHow to use our weather pages